Regional Weather Roundup
Issued by NWS Newport/Morehead, NC

Current Version | Previous Version | Graphics & Text | Print | Product List | Glossary On
Versions: 1 2 3 4 5 6 7 8 9 10 11 12 13 14 15 16 17 18 19 20 21 22 23 24 25 26 27 28 29 30 31 32 33 34 35 36 37 38 39 40 41 42 43 44 45 46 47 48 49 50
000
ASUS42 KMHX 251312
RWRMHX
WEATHER ROUNDUP FOR EASTERN NORTH CAROLINA
NATIONAL WEATHER SERVICE NEWPORT/MOREHEAD CITY NC
900 AM EDT SAT APR 25 2015

NOTE: "FAIR" INDICATES FEW OR NO CLOUDS BELOW 12,000 FEET
WITH NO SIGNIFICANT WEATHER AND/OR OBSTRUCTIONS TO VISIBILITY

NCZ015>017-031-032-045>047-102-103-251400-
NORTH COAST

CITY           SKY/WX    TMP DP  RH WIND       PRES   REMARKS
EDENTON        CLOUDY    53  48  84 SE3       29.92F
ELIZABETH CITY CLOUDY    56  45  66 E6        29.93F
KITTY HAWK     CLOUDY    55  39  54 E5        29.92S
MANTEO         CLOUDY    56  41  58 E3        29.94S

$$

NCZ045>047-081-094-103-104-251400-
CENTRAL COAST

CITY           SKY/WX    TMP DP  RH WIND       PRES   REMARKS
FRISCO         MOSUNNY   58  48  69 NW8       29.94S
SWANQUARTER      N/A     57 N/A N/A W3        29.91S

$$

NCZ095-097-098-100-101-251400-
SOUTHERN COAST

CITY           SKY/WX    TMP DP  RH WIND       PRES   REMARKS
BEAUFORT       CLOUDY    63  57  81 SW7       29.93R
CEDAR ISLAND     N/A     61 N/A N/A W5G12     29.97R
JACKSONVILLE   CLOUDY    57  51  80 W3        29.93R
PINEY ISLAND   CLOUDY   N/A N/A N/A W9        29.93S
WILMINGTON     CLOUDY    65  54  67 SW7       29.93F


$$

NCZ011>013-027>030-043-044-078>080-089-090>093-098-251400-
COASTAL PLAIN

CITY           SKY/WX    TMP DP  RH WIND       PRES   REMARKS
AHOSKIE        CLOUDY    48  43  83 CALM      29.95R
CLINTON        CLOUDY    55  50  81 CALM      29.94R
ELIZABETHTOWN  CLOUDY    61  49  65 SW3       29.92R
GOLDSBORO      CLOUDY    57  49  76 CALM      29.92R
GREENVILLE     CLOUDY    55  46  71 CALM      29.96R
HAVELOCK       CLOUDY    58  52  80 SW6       29.94S
KENANSVILLE    CLOUDY    55  49  78 CALM      29.95R
KINSTON        CLOUDY    54  46  76 N3        29.96R
NEW BERN       CLOUDY    56  48  74 CALM      29.95R
RICHLANDS      CLOUDY    55  46  71 SW5       29.94S
ROCKY MOUNT    CLOUDY    52  43  71 CALM      29.94R
WASHINGTON     CLOUDY    53  47  81 CALM      29.94S
WHITEVILLE     DRIZZLE   61  52  71 SW6       29.93R

$$

AMZ130-135-150-152-154-156-158-170-250-252-270-ANZ085-086-088-633-658-670-251400-
MARINE OBSERVATIONS

STATION/POSITION TIME  TEMP    WIND        PRES    WAVE   SWELL
                       AIR SEA DIR/SP/G            HT/PER HT/PER
                 (UTC) (F)     (DEG/KT/KT) (MB)    (FT/S) (FT/S)
CHESAPEAKE LIGHT 1300   51      60/ 14/ 15 1014.2
64 E VA BEACH    1250   55 60  360/ 10/ 12 1013.4    2/13   2/13
DUCK             1200   55 55  100/  6/  6 1012.7
2 E DUCK         1211      54                N/A     2/13   2/13
10 NE DUCK       NOT AVBL
OREGON INLET     1200   54 56   60/  5/  7 1013.5
HATTERAS CG      1200   62 66  240/  8/ 11 1012.9
DIAMOND BUOY     1250   65 71  280/ 14/ 16 1013.2    3/ 8   2/ 8
CAPE LOOKOUT     1300   65     250/  6/  9 1013.3
BEAUFORT LAB     1200   63 64  220/  3/  5 1012.3
27 SE WRIGHTSVLE 1200   65 70  240/ 16/ 16   N/A
5 SE WRIGHTSVLE  1208   66 65  210/ 12/ 16 1013.4
225 S CAPE HAT   1250   64 70  170/  6/  8 1016.6    6/10   7/10
41 SE CHARLESTON 1250   71 71  170/ 10/ 12 1013.8    2/ 8   2/ 8

$$


USA.gov is the U.S. government's official web portal to all federal, state and local government web resources and services.